This is the latest recevied weather packets stored in our database for station/object KO6OBR. If no packets are shown the sender has not sent any weather packets the latest 10 day(s).
| Time | Temp. | Humidity | Pressure | Rain* | Wind** | Luminosity | Snow |
|---|---|---|---|---|---|---|---|
| 1788140119 | 87° F | 52% | 761.5 mmHg | 0 in | - | 44 W/m² | - |
| 1788139514 | 90° F | 50% | 761.5 mmHg | 0 in | - | 59 W/m² | - |
| 1788138914 | 89° F | 48% | 761.5 mmHg | 0 in | - | 78 W/m² | - |
| 1788138310 | 91° F | 47% | 761.4 mmHg | 0 in | - | 98 W/m² | - |
| 1788137708 | 91° F | 47% | 761.5 mmHg | 0 in | - | 131 W/m² | - |
| 1788137104 | 92° F | 45% | 761.5 mmHg | 0 in | - | 159 W/m² | - |
| 1788136501 | 92° F | 46% | 761.5 mmHg | 0 in | - | 189 W/m² | - |
| 1788135899 | 92° F | 45% | 761.6 mmHg | 0 in | - | 224 W/m² | - |
| 1788135296 | 92° F | 43% | 761.6 mmHg | 0 in | - | 265 W/m² | - |
| 1788134695 | 93° F | 43% | 761.5 mmHg | 0 in | - | 309 W/m² | - |
| 1788134094 | 93° F | 42% | 761.4 mmHg | 0 in | - | 309 W/m² | - |
| 1788133490 | 93° F | 42% | 761.6 mmHg | 0 in | - | 61 W/m² | - |
| 1788132886 | 94° F | 41% | 761.4 mmHg | 0 in | - | 61 W/m² | - |
| 1788132284 | 94° F | 42% | 761.5 mmHg | 0 in | - | 62 W/m² | - |
| 1788131681 | 94° F | 43% | 761.5 mmHg | 0 in | - | 68 W/m² | - |
| 1788131076 | 94° F | 42% | 761.5 mmHg | 0 in | - | 498 W/m² | - |
| 1788130471 | 94° F | 43% | 761.7 mmHg | 0 in | - | 534 W/m² | - |
| 1788129870 | 94° F | 43% | 761.7 mmHg | 0 in | - | 558 W/m² | - |
| 1788129269 | 95° F | 42% | 761.8 mmHg | 0 in | - | 585 W/m² | - |
| 1788128668 | 95° F | 43% | 762 mmHg | 0 in | - | 601 W/m² | - |
| 1788128066 | 95° F | 43% | 761.9 mmHg | 0 in | - | 624 W/m² | - |
| 1788127461 | 94° F | 44% | 762.1 mmHg | 0 in | - | 646 W/m² | - |
| 1788126860 | 95° F | 44% | 762.1 mmHg | 0 in | - | 673 W/m² | - |
| 1788126256 | 95° F | 42% | 762.1 mmHg | 0 in | - | 688 W/m² | - |
| 1788125652 | 94° F | 43% | 762.3 mmHg | 0 in | - | 710 W/m² | - |
* Rain latest hour (hover to see other rain measurements)
** Current wind speed in m/s (hover to see current wind gust speed)